| time (UTC) | temp F | wind direction | speed MPH | gust MPH | rain 1hr in | rain 24hr in | rain mn in | humidity % | barometer mb |
| 20260510130056 | 55 | 0 | 0.0 | 4.0 | 0.00 | 0.32 | 0.00 | 97 | 1013.5 |
| 20260510124604 | 55 | 301 | 0.0 | 2.0 | 0.00 | 0.32 | 0.00 | 98 | 1013.5 |
| 20260510123100 | 54 | 22 | 0.0 | 2.0 | 0.00 | 0.32 | 0.00 | 98 | 1013.0 |
| 20260510121552 | 53 | 0 | 0.0 | 2.0 | 0.00 | 0.32 | 0.00 | 97 | 1013.0 |
| 20260510120054 | 53 | 0 | 0.0 | 1.0 | 0.00 | 0.32 | 0.00 | 98 | 1012.7 |
| 20260510114555 | 52 | 329 | 1.0 | 3.0 | 0.00 | 0.32 | 0.00 | 98 | 1012.5 |
| 20260510113054 | 51 | 0 | 0.0 | 2.0 | 0.00 | 0.32 | 0.00 | 97 | 1012.1 |
| 20260510111603 | 51 | 0 | 0.0 | 0.0 | 0.00 | 0.32 | 0.00 | 97 | 1012.1 |
| 20260510110053 | 51 | 0 | 0.0 | 0.0 | 0.00 | 0.32 | 0.00 | 97 | 1012.2 |
| 20260510104553 | 50 | 0 | 0.0 | 0.0 | 0.00 | 0.32 | 0.00 | 97 | 1012.0 |
| 20260510103103 | 50 | 0 | 0.0 | 2.0 | 0.00 | 0.32 | 0.00 | 97 | 1012.0 |
| 20260510101559 | 50 | 0 | 0.0 | 0.0 | 0.00 | 0.32 | 0.00 | 97 | 1011.8 |
| 20260510100054 | 50 | 0 | 0.0 | 1.0 | 0.00 | 0.32 | 0.00 | 97 | 1011.7 |
| 20260510094605 | 50 | 0 | 0.0 | 2.0 | 0.00 | 0.32 | 0.00 | 97 | 1011.7 |
| 20260510093119 | 50 | 0 | 0.0 | 2.0 | 0.00 | 0.32 | 0.00 | 97 | 1011.7 |
| 20260510091557 | 50 | 0 | 1.0 | 3.0 | 0.00 | 0.32 | 0.00 | 97 | 1011.7 |
| 20260510090055 | 50 | 0 | 0.0 | 2.0 | 0.00 | 0.32 | 0.00 | 97 | 1011.8 |
| 20260510084552 | 50 | 0 | 0.0 | 2.0 | 0.00 | 0.32 | 0.00 | 97 | 1011.9 |
| 20260510083104 | 50 | 53 | 0.0 | 3.0 | 0.00 | 0.32 | 0.00 | 97 | 1011.8 |
| 20260510081548 | 50 | 0 | 1.0 | 3.0 | 0.00 | 0.32 | 0.00 | 97 | 1012.0 |
| 20260510080056 | 50 | 0 | 1.0 | 5.0 | 0.00 | 0.32 | 0.00 | 96 | 1011.7 |
| 20260510074556 | 50 | 0 | 0.0 | 1.0 | 0.00 | 0.32 | 0.00 | 97 | 1011.2 |
| 20260510073055 | 50 | 0 | 0.0 | 0.0 | 0.00 | 0.32 | 0.00 | 97 | 1011.0 |
| 20260510071550 | 50 | 0 | 0.0 | 2.0 | 0.00 | 0.32 | 0.00 | 97 | 1011.1 |
| 20260510070053 | 50 | 0 | 0.0 | 1.0 | 0.00 | 0.32 | 0.00 | 97 | 1011.3 |
| 20260510064559 | 50 | 0 | 0.0 | 1.0 | 0.00 | 0.32 | 0.00 | 97 | 1011.1 |
| 20260510063053 | 50 | 0 | 0.0 | 1.0 | 0.00 | 0.32 | 0.00 | 97 | 1011.4 |
| 20260510061555 | 49 | 0 | 0.0 | 0.0 | 0.00 | 0.32 | 0.00 | 97 | 1011.3 |
| 20260510060048 | 49 | 0 | 0.0 | 0.0 | 0.00 | 0.32 | 0.00 | 96 | 1011.0 |
| 20260510054551 | 49 | 0 | 0.0 | 0.0 | 0.00 | 0.32 | 0.00 | 97 | 1011.1 |
| 20260510053055 | 48 | 0 | 0.0 | 0.0 | 0.00 | 0.32 | 0.00 | 96 | 1011.1 |
| 20260510051605 | 48 | 0 | 0.0 | 1.0 | 0.00 | 0.32 | 0.00 | 96 | 1011.1 |
| 20260510050054 | 48 | 0 | 0.0 | 0.0 | 0.00 | 0.32 | 0.00 | 96 | 1011.3 |
| 20260510044601 | 48 | 0 | 0.0 | 0.0 | 0.00 | 0.32 | 0.00 | 96 | 1011.3 |
| 20260510043051 | 48 | 0 | 0.0 | 0.0 | 0.00 | 0.32 | 0.00 | 96 | 1011.4 |
| 20260510041551 | 47 | 0 | 0.0 | 1.0 | 0.00 | 0.32 | 0.00 | 96 | 1011.3 |
| 20260510040056 | 47 | 0 | 0.0 | 0.0 | 0.00 | 0.32 | 0.00 | 96 | 1011.5 |
| 20260510034553 | 47 | 0 | 0.0 | 0.0 | 0.00 | 0.32 | 0.32 | 95 | 1011.3 |
| 20260510033108 | 47 | 0 | 0.0 | 0.0 | 0.00 | 0.32 | 0.32 | 95 | 1011.2 |
| 20260510031551 | 47 | 0 | 0.0 | 0.0 | 0.00 | 0.32 | 0.32 | 95 | 1011.2 |
| 20260510024553 | 48 | 0 | 0.0 | 1.0 | 0.00 | 0.32 | 0.32 | 95 | 1010.9 |
| 20260510023053 | 47 | 0 | 0.0 | 0.0 | 0.00 | 0.32 | 0.32 | 95 | 1010.9 |
| 20260510021600 | 47 | 0 | 0.0 | 0.0 | 0.00 | 0.32 | 0.32 | 95 | 1010.9 |
| 20260510020053 | 47 | 0 | 0.0 | 0.0 | 0.00 | 0.32 | 0.32 | 94 | 1011.0 |
| 20260510014548 | 48 | 0 | 0.0 | 0.0 | 0.00 | 0.32 | 0.32 | 94 | 1010.9 |
| 20260510013051 | 49 | 0 | 0.0 | 0.0 | 0.00 | 0.32 | 0.32 | 94 | 1010.9 |
| 20260510011552 | 49 | 0 | 0.0 | 0.0 | 0.00 | 0.32 | 0.32 | 94 | 1011.0 |
| 20260510010051 | 50 | 0 | 0.0 | 0.0 | 0.00 | 0.32 | 0.32 | 94 | 1010.8 |
| 20260510004553 | 51 | 0 | 0.0 | 0.0 | 0.00 | 0.32 | 0.32 | 93 | 1010.6 |
| 20260510003051 | 51 | 0 | 0.0 | 0.0 | 0.00 | 0.32 | 0.32 | 93 | 1010.4 |
| 20260510001550 | 52 | 0 | 0.0 | 0.0 | 0.00 | 0.32 | 0.32 | 93 | 1010.3 |
| 20260510000049 | 53 | 0 | 0.0 | 0.0 | 0.00 | 0.32 | 0.32 | 93 | 1010.2 |
| 20260509234554 | 53 | 0 | 0.0 | 0.0 | 0.00 | 0.32 | 0.32 | 92 | 1010.3 |
| 20260509233054 | 54 | 0 | 0.0 | 1.0 | 0.00 | 0.32 | 0.32 | 92 | 1010.0 |
| 20260509231552 | 55 | 208 | 0.0 | 2.0 | 0.00 | 0.32 | 0.32 | 92 | 1009.8 |
| 20260509230057 | 55 | 112 | 1.0 | 3.0 | 0.00 | 0.32 | 0.32 | 92 | 1009.9 |
| 20260509224555 | 55 | 107 | 1.0 | 4.0 | 0.00 | 0.32 | 0.32 | 91 | 1010.1 |
| 20260509223054 | 56 | 123 | 2.0 | 4.0 | 0.00 | 0.32 | 0.32 | 91 | 1010.1 |
| 20260509221553 | 56 | 0 | 0.0 | 1.0 | 0.00 | 0.32 | 0.32 | 92 | 1009.9 |
| 20260509220103 | 55 | 0 | 1.0 | 4.0 | 0.00 | 0.32 | 0.32 | 92 | 1010.0 |
| 20260509214600 | 55 | 94 | 0.0 | 3.0 | 0.01 | 0.32 | 0.32 | 93 | 1010.2 |
| 20260509213122 | 55 | 0 | 0.0 | 0.0 | 0.05 | 0.32 | 0.32 | 93 | 1010.2 |
| 20260509211556 | 54 | 0 | 0.0 | 2.0 | 0.10 | 0.32 | 0.32 | 94 | 1010.2 |
| 20260509210107 | 54 | 0 | 0.0 | 1.0 | 0.11 | 0.32 | 0.32 | 94 | 1010.3 |
| 20260509204555 | 53 | 0 | 0.0 | 1.0 | 0.12 | 0.31 | 0.31 | 93 | 1010.3 |
| 20260509203054 | 54 | 0 | 0.0 | 1.0 | 0.10 | 0.27 | 0.27 | 93 | 1010.3 |
| 20260509201559 | 54 | 0 | 0.0 | 1.0 | 0.06 | 0.22 | 0.22 | 93 | 1010.6 |
| 20260509200100 | 54 | 0 | 0.0 | 2.0 | 0.07 | 0.21 | 0.21 | 93 | 1010.4 |
| 20260509194555 | 54 | 0 | 1.0 | 3.0 | 0.07 | 0.19 | 0.19 | 92 | 1010.9 |
| 20260509193052 | 54 | 0 | 0.0 | 5.0 | 0.07 | 0.17 | 0.17 | 92 | 1011.1 |
| 20260509191551 | 54 | 313 | 0.0 | 7.0 | 0.10 | 0.16 | 0.16 | 93 | 1011.4 |
| 20260509190052 | 54 | 0 | 0.0 | 6.0 | 0.11 | 0.14 | 0.14 | 92 | 1011.4 |
| 20260509184554 | 55 | 329 | 0.0 | 4.0 | 0.11 | 0.12 | 0.12 | 92 | 1011.5 |
| 20260509183053 | 55 | 281 | 0.0 | 4.0 | 0.10 | 0.10 | 0.10 | 91 | 1011.6 |
| 20260509181559 | 55 | 0 | 0.0 | 2.0 | 0.06 | 0.06 | 0.06 | 91 | 1011.7 |
| 20260509180050 | 56 | 0 | 0.0 | 2.0 | 0.03 | 0.03 | 0.03 | 90 | 1011.2 |
| 20260509174552 | 56 | 0 | 0.0 | 2.0 | 0.01 | 0.01 | 0.01 | 88 | 1011.2 |
| 20260509173056 | 57 | 0 | 0.0 | 4.0 | 0.00 | 0.00 | 0.00 | 86 | 1011.4 |
| 20260509171553 | 58 | 303 | 1.0 | 6.0 | 0.00 | 0.00 | 0.00 | 82 | 1011.7 |
| 20260509170055 | 60 | 342 | 1.0 | 9.0 | 0.00 | 0.00 | 0.00 | 78 | 1011.7 |
| 20260509164553 | 61 | 250 | 2.0 | 8.0 | 0.00 | 0.00 | 0.00 | 75 | 1011.5 |
| 20260509163054 | 61 | 0 | 1.0 | 8.0 | 0.00 | 0.00 | 0.00 | 74 | 1011.7 |
| 20260509161551 | 61 | 317 | 3.0 | 10.0 | 0.00 | 0.00 | 0.00 | 71 | 1011.7 |
| 20260509160052 | 61 | 319 | 3.0 | 11.0 | 0.00 | 0.00 | 0.00 | 75 | 1011.8 |
| 20260509154556 | 61 | 291 | 2.0 | 7.0 | 0.00 | 0.00 | 0.00 | 78 | 1011.8 |
| 20260509153102 | 61 | 286 | 2.0 | 5.0 | 0.00 | 0.00 | 0.00 | 78 | 1011.7 |
| 20260509151555 | 60 | 201 | 0.0 | 4.0 | 0.00 | 0.00 | 0.00 | 82 | 1012.0 |
| 20260509150052 | 59 | 0 | 0.0 | 3.0 | 0.00 | 0.00 | 0.00 | 81 | 1012.1 |
| 20260509144556 | 58 | 0 | 1.0 | 6.0 | 0.00 | 0.00 | 0.00 | 81 | 1012.1 |
| 20260509143054 | 57 | 0 | 0.0 | 5.0 | 0.00 | 0.00 | 0.00 | 82 | 1012.0 |
| 20260509141556 | 57 | 184 | 1.0 | 8.0 | 0.00 | 0.00 | 0.00 | 83 | 1012.1 |
| 20260509134552 | 55 | 0 | 0.0 | 0.0 | 0.00 | 0.00 | 0.00 | 84 | 1011.9 |
| 20260509133053 | 54 | 0 | 0.0 | 0.0 | 0.00 | 0.00 | 0.00 | 84 | 1011.9 |
| 20260509131554 | 53 | 0 | 0.0 | 0.0 | 0.00 | 0.00 | 0.00 | 86 | 1011.9 |